| time (UTC) | temp F | wind direction | speed MPH | gust MPH | rain 1hr in | rain 24hr in | rain mn in | humidity % | barometer mb |
| 20260506073506 | 61 | 135 | 0.0 | 2.0 | 0.00 | 0.00 | 0.00 | 70 | 981.3 |
| 20260506073001 | 61 | 38 | 0.0 | 2.0 | 0.00 | 0.00 | 0.00 | 70 | 981.4 |
| 20260506072557 | 61 | 97 | 1.0 | 1.0 | 0.00 | 0.00 | 0.00 | 70 | 981.2 |
| 20260506072052 | 61 | 122 | 0.0 | 0.0 | 0.00 | 0.00 | 0.00 | 70 | 981.5 |
| 20260506071547 | 61 | 146 | 0.0 | 1.0 | 0.00 | 0.00 | 0.00 | 71 | 981.8 |
| 20260506071042 | 60 | 142 | 0.0 | 0.0 | 0.00 | 0.00 | 0.00 | 71 | 981.8 |
| 20260506070537 | 60 | 37 | 0.0 | 1.0 | 0.00 | 0.00 | 0.00 | 70 | 981.7 |
| 20260506062057 | 62 | 141 | 0.0 | 2.0 | 0.00 | 0.00 | 0.00 | 66 | 981.9 |
| 20260506061549 | 62 | 28 | 0.0 | 1.0 | 0.00 | 0.00 | 0.00 | 65 | 982.0 |
| 20260506061043 | 62 | 37 | 0.0 | 0.0 | 0.00 | 0.00 | 0.00 | 64 | 981.8 |
| 20260506060538 | 63 | 29 | 0.0 | 0.0 | 0.00 | 0.00 | 0.00 | 64 | 981.9 |
| 20260506051049 | 63 | 283 | 0.0 | 0.0 | 0.00 | 0.00 | 0.00 | 62 | 981.3 |
| 20260506050544 | 63 | 352 | 0.0 | 2.0 | 0.00 | 0.00 | 0.00 | 62 | 981.6 |
| 20260506045023 | 64 | 113 | 0.0 | 0.0 | 0.00 | 0.00 | 0.00 | 61 | 981.8 |
| 20260506044519 | 64 | 269 | 0.0 | 0.0 | 0.00 | 0.00 | 0.00 | 60 | 982.2 |
| 20260506044014 | 64 | 297 | 0.0 | 1.0 | 0.00 | 0.00 | 0.00 | 60 | 981.8 |
| 20260506043509 | 64 | 256 | 0.0 | 1.0 | 0.00 | 0.00 | 0.00 | 60 | 982.0 |
| 20260506043008 | 64 | 314 | 1.0 | 2.0 | 0.00 | 0.00 | 0.00 | 60 | 981.8 |
| 20260506042559 | 64 | 238 | 0.0 | 2.0 | 0.00 | 0.00 | 0.00 | 61 | 981.8 |
| 20260506042055 | 64 | 299 | 2.0 | 3.0 | 0.00 | 0.00 | 0.00 | 60 | 981.8 |
| 20260506041551 | 64 | 309 | 0.0 | 2.0 | 0.00 | 0.00 | 0.00 | 62 | 981.7 |
| 20260506041045 | 64 | 286 | 1.0 | 1.0 | 0.00 | 0.00 | 0.00 | 62 | 981.5 |
| 20260506040545 | 64 | 342 | 1.0 | 2.0 | 0.00 | 0.00 | 0.00 | 62 | 981.7 |
| 20260506040040 | 64 | 245 | 2.0 | 2.0 | 0.00 | 0.00 | 0.00 | 61 | 981.5 |
| 20260506035535 | 64 | 144 | 0.0 | 1.0 | 0.00 | 0.00 | 0.00 | 60 | 981.4 |
| 20260506035025 | 64 | 326 | 0.0 | 0.0 | 0.00 | 0.00 | 0.00 | 60 | 981.6 |
| 20260506034520 | 64 | 283 | 0.0 | 1.0 | 0.00 | 0.00 | 0.00 | 61 | 981.9 |
| 20260506034015 | 64 | 246 | 0.0 | 0.0 | 0.00 | 0.00 | 0.00 | 60 | 981.7 |
| 20260506033510 | 64 | 304 | 0.0 | 1.0 | 0.00 | 0.00 | 0.00 | 61 | 981.8 |
| 20260506033009 | 64 | 345 | 0.0 | 0.0 | 0.00 | 0.00 | 0.00 | 59 | 981.9 |
| 20260506032100 | 64 | 142 | 0.0 | 0.0 | 0.00 | 0.00 | 0.00 | 60 | 981.8 |
| 20260506031552 | 64 | 173 | 0.0 | 0.0 | 0.00 | 0.00 | 0.00 | 59 | 981.8 |
| 20260506031047 | 64 | 147 | 0.0 | 0.0 | 0.00 | 0.00 | 0.00 | 58 | 981.8 |
| 20260506030542 | 65 | 293 | 0.0 | 0.0 | 0.00 | 0.00 | 0.00 | 58 | 981.8 |
| 20260506030036 | 65 | 311 | 1.0 | 2.0 | 0.00 | 0.00 | 0.00 | 58 | 981.9 |
| 20260506025532 | 65 | 224 | 0.0 | 1.0 | 0.00 | 0.00 | 0.00 | 59 | 981.9 |
| 20260506025031 | 65 | 141 | 0.0 | 1.0 | 0.00 | 0.00 | 0.00 | 58 | 981.8 |
| 20260506024522 | 65 | 266 | 2.0 | 2.0 | 0.00 | 0.00 | 0.00 | 59 | 981.9 |
| 20260506024016 | 65 | 258 | 0.0 | 2.0 | 0.00 | 0.00 | 0.00 | 59 | 981.7 |
| 20260506023511 | 65 | 283 | 0.0 | 1.0 | 0.00 | 0.00 | 0.00 | 58 | 981.9 |
| 20260506023011 | 65 | 338 | 0.0 | 1.0 | 0.00 | 0.00 | 0.00 | 58 | 981.8 |
| 20260506022501 | 65 | 148 | 0.0 | 0.0 | 0.00 | 0.00 | 0.00 | 58 | 982.0 |
| 20260506022057 | 65 | 290 | 0.0 | 0.0 | 0.00 | 0.00 | 0.00 | 57 | 981.9 |
| 20260506021553 | 66 | 230 | 0.0 | 0.0 | 0.00 | 0.00 | 0.00 | 56 | 981.9 |
| 20260506021053 | 66 | 219 | 0.0 | 1.0 | 0.00 | 0.00 | 0.00 | 56 | 981.8 |
| 20260506020542 | 66 | 142 | 0.0 | 0.0 | 0.00 | 0.00 | 0.00 | 56 | 981.7 |
| 20260506020043 | 66 | 141 | 0.0 | 1.0 | 0.00 | 0.00 | 0.00 | 56 | 981.8 |
| 20260506015532 | 66 | 142 | 0.0 | 1.0 | 0.00 | 0.00 | 0.00 | 56 | 981.7 |
| 20260506015028 | 66 | 157 | 0.0 | 1.0 | 0.00 | 0.00 | 0.00 | 55 | 981.7 |
| 20260506014522 | 66 | 290 | 1.0 | 1.0 | 0.00 | 0.00 | 0.00 | 55 | 981.7 |
| 20260506014017 | 66 | 142 | 0.0 | 1.0 | 0.00 | 0.00 | 0.00 | 54 | 981.4 |
| 20260506013512 | 67 | 150 | 0.0 | 0.0 | 0.00 | 0.00 | 0.00 | 55 | 981.6 |
| 20260506013007 | 67 | 169 | 0.0 | 1.0 | 0.00 | 0.00 | 0.00 | 54 | 981.7 |
| 20260506012502 | 67 | 129 | 0.0 | 1.0 | 0.00 | 0.00 | 0.00 | 54 | 981.6 |
| 20260506012058 | 67 | 142 | 0.0 | 0.0 | 0.00 | 0.00 | 0.00 | 53 | 981.6 |
| 20260506011553 | 68 | 110 | 0.0 | 0.0 | 0.00 | 0.00 | 0.00 | 52 | 981.4 |
| 20260506011048 | 68 | 142 | 0.0 | 0.0 | 0.00 | 0.00 | 0.00 | 52 | 981.5 |
| 20260506010543 | 68 | 217 | 0.0 | 0.0 | 0.00 | 0.00 | 0.00 | 51 | 981.5 |
| 20260506010038 | 69 | 199 | 0.0 | 1.0 | 0.00 | 0.00 | 0.00 | 50 | 981.6 |
| 20260506005533 | 69 | 212 | 0.0 | 0.0 | 0.00 | 0.00 | 0.00 | 49 | 981.6 |
| 20260506005027 | 70 | 142 | 0.0 | 0.0 | 0.00 | 0.00 | 0.00 | 49 | 981.6 |
| 20260506004523 | 70 | 142 | 0.0 | 1.0 | 0.00 | 0.00 | 0.00 | 49 | 981.5 |
| 20260506004017 | 71 | 141 | 0.0 | 1.0 | 0.00 | 0.00 | 0.00 | 48 | 981.7 |
| 20260506003512 | 71 | 143 | 0.0 | 0.0 | 0.00 | 0.00 | 0.00 | 48 | 981.7 |
| 20260506003007 | 72 | 238 | 0.0 | 2.0 | 0.00 | 0.00 | 0.00 | 47 | 981.8 |
| 20260506002507 | 72 | 310 | 0.0 | 2.0 | 0.00 | 0.00 | 0.00 | 45 | 981.6 |
| 20260506002058 | 72 | 242 | 0.0 | 0.0 | 0.00 | 0.00 | 0.00 | 46 | 981.5 |
| 20260506001554 | 73 | 95 | 2.0 | 2.0 | 0.00 | 0.00 | 0.00 | 43 | 981.4 |
| 20260506001049 | 73 | 259 | 0.0 | 1.0 | 0.00 | 0.00 | 0.00 | 43 | 981.5 |
| 20260506000544 | 73 | 245 | 0.0 | 2.0 | 0.00 | 0.00 | 0.00 | 43 | 981.6 |
| 20260506000039 | 74 | 199 | 1.0 | 2.0 | 0.00 | 0.00 | 0.00 | 42 | 981.2 |
| 20260505235534 | 74 | 166 | 1.0 | 3.0 | 0.00 | 0.00 | 0.00 | 40 | 981.4 |
| 20260505235029 | 75 | 60 | 0.0 | 2.0 | 0.00 | 0.00 | 0.00 | 39 | 981.1 |
| 20260505234528 | 75 | 23 | 0.0 | 3.0 | 0.00 | 0.00 | 0.00 | 38 | 981.3 |
| 20260505234019 | 76 | 241 | 0.0 | 3.0 | 0.00 | 0.00 | 0.00 | 40 | 981.4 |
| 20260505233519 | 76 | 231 | 3.0 | 3.0 | 0.00 | 0.00 | 0.00 | 38 | 981.4 |
| 20260505233009 | 76 | 272 | 0.0 | 3.0 | 0.00 | 0.00 | 0.00 | 38 | 981.4 |
| 20260505232504 | 76 | 252 | 0.0 | 4.0 | 0.00 | 0.00 | 0.00 | 38 | 981.5 |
| 20260505232104 | 76 | 321 | 2.0 | 7.0 | 0.00 | 0.00 | 0.00 | 38 | 981.3 |
| 20260505231054 | 77 | 338 | 4.0 | 5.0 | 0.00 | 0.00 | 0.00 | 37 | 981.2 |
| 20260505230554 | 77 | 327 | 4.0 | 6.0 | 0.00 | 0.00 | 0.00 | 35 | 981.1 |
| 20260505230044 | 78 | 180 | 0.0 | 2.0 | 0.00 | 0.00 | 0.00 | 36 | 981.1 |
| 20260505225539 | 79 | 244 | 4.0 | 4.0 | 0.00 | 0.00 | 0.00 | 34 | 981.3 |
| 20260505225034 | 80 | 303 | 4.0 | 6.0 | 0.00 | 0.00 | 0.00 | 32 | 981.1 |
| 20260505224529 | 81 | 234 | 2.0 | 5.0 | 0.00 | 0.00 | 0.00 | 32 | 981.1 |
| 20260505224029 | 81 | 293 | 1.0 | 4.0 | 0.00 | 0.00 | 0.00 | 32 | 981.1 |
| 20260505223524 | 81 | 231 | 1.0 | 6.0 | 0.00 | 0.00 | 0.00 | 32 | 981.1 |
| 20260505223013 | 81 | 258 | 3.0 | 4.0 | 0.00 | 0.00 | 0.00 | 35 | 981.0 |
| 20260505222509 | 81 | 81 | 1.0 | 3.0 | 0.00 | 0.00 | 0.00 | 34 | 981.1 |
| 20260505222003 | 81 | 300 | 1.0 | 6.0 | 0.00 | 0.00 | 0.00 | 33 | 980.9 |
| 20260505221559 | 81 | 284 | 4.0 | 6.0 | 0.00 | 0.00 | 0.00 | 32 | 981.0 |
| 20260505221054 | 81 | 299 | 1.0 | 11.0 | 0.00 | 0.00 | 0.00 | 32 | 980.7 |
| 20260505220555 | 82 | 286 | 2.0 | 5.0 | 0.00 | 0.00 | 0.00 | 31 | 980.9 |
| 20260505220044 | 82 | 290 | 2.0 | 6.0 | 0.00 | 0.00 | 0.00 | 31 | 981.0 |
| 20260505215539 | 82 | 272 | 1.0 | 6.0 | 0.00 | 0.00 | 0.00 | 32 | 980.7 |
| 20260505215034 | 83 | 140 | 1.0 | 6.0 | 0.00 | 0.00 | 0.00 | 31 | 980.9 |
| 20260505214529 | 81 | 150 | 0.0 | 5.0 | 0.00 | 0.00 | 0.00 | 35 | 981.0 |
| 20260505214024 | 82 | 318 | 4.0 | 13.0 | 0.00 | 0.00 | 0.00 | 32 | 981.1 |
| 20260505213519 | 83 | 40 | 3.0 | 4.0 | 0.00 | 0.00 | 0.00 | 33 | 981.3 |
| 20260505213014 | 81 | 109 | 4.0 | 4.0 | 0.00 | 0.00 | 0.00 | 32 | 981.1 |
| 20260505212514 | 82 | 283 | 5.0 | 6.0 | 0.00 | 0.00 | 0.00 | 33 | 981.2 |
| 20260505212004 | 82 | 230 | 0.0 | 4.0 | 0.00 | 0.00 | 0.00 | 33 | 981.1 |
| 20260505211600 | 81 | 245 | 7.0 | 9.0 | 0.00 | 0.00 | 0.00 | 32 | 981.2 |
| 20260505211055 | 82 | 344 | 1.0 | 6.0 | 0.00 | 0.00 | 0.00 | 32 | 981.2 |
| 20260505210555 | 82 | 43 | 3.0 | 5.0 | 0.00 | 0.00 | 0.00 | 33 | 981.3 |
| 20260505210050 | 81 | 269 | 0.0 | 4.0 | 0.00 | 0.00 | 0.00 | 36 | 981.2 |
| 20260505205540 | 80 | 333 | 8.0 | 8.0 | 0.00 | 0.00 | 0.00 | 34 | 981.3 |
| 20260505205035 | 80 | 163 | 2.0 | 4.0 | 0.00 | 0.00 | 0.00 | 34 | 981.2 |
| 20260505204530 | 80 | 116 | 2.0 | 6.0 | 0.00 | 0.00 | 0.00 | 35 | 981.6 |
| 20260505204025 | 80 | 99 | 4.0 | 7.0 | 0.00 | 0.00 | 0.00 | 36 | 981.7 |
| 20260505203525 | 80 | 125 | 4.0 | 4.0 | 0.00 | 0.00 | 0.00 | 35 | 981.9 |
| 20260505203015 | 81 | 258 | 2.0 | 6.0 | 0.00 | 0.00 | 0.00 | 33 | 981.9 |
| 20260505202510 | 82 | 300 | 6.0 | 6.0 | 0.00 | 0.00 | 0.00 | 32 | 981.9 |
| 20260505202005 | 83 | 267 | 4.0 | 11.0 | 0.00 | 0.00 | 0.00 | 30 | 981.9 |
| 20260505201056 | 81 | 160 | 1.0 | 10.0 | 0.00 | 0.00 | 0.00 | 33 | 982.0 |
| 20260505200551 | 82 | 244 | 3.0 | 8.0 | 0.00 | 0.00 | 0.00 | 31 | 982.0 |
| 20260505200046 | 80 | 276 | 3.0 | 9.0 | 0.00 | 0.00 | 0.00 | 34 | 982.1 |
| 20260505195541 | 80 | 87 | 0.0 | 5.0 | 0.00 | 0.00 | 0.00 | 34 | 982.2 |
| 20260505195036 | 80 | 166 | 1.0 | 4.0 | 0.00 | 0.00 | 0.00 | 33 | 982.3 |
| 20260505194531 | 81 | 251 | 4.0 | 6.0 | 0.00 | 0.00 | 0.00 | 31 | 982.4 |
| 20260505194026 | 80 | 202 | 1.0 | 9.0 | 0.00 | 0.00 | 0.00 | 34 | 982.4 |
| 20260505193520 | 80 | 134 | 4.0 | 7.0 | 0.00 | 0.00 | 0.00 | 33 | 982.5 |
| 20260505193020 | 81 | 319 | 4.0 | 6.0 | 0.00 | 0.00 | 0.00 | 36 | 982.6 |
| 20260505192510 | 80 | 174 | 2.0 | 4.0 | 0.00 | 0.00 | 0.00 | 37 | 982.6 |
| 20260505192005 | 79 | 111 | 2.0 | 6.0 | 0.00 | 0.00 | 0.00 | 36 | 982.6 |
| 20260505191056 | 79 | 55 | 5.0 | 6.0 | 0.00 | 0.00 | 0.00 | 35 | 982.4 |
| 20260505190556 | 80 | 73 | 3.0 | 6.0 | 0.00 | 0.00 | 0.00 | 36 | 982.8 |
| 20260505190051 | 80 | 317 | 7.0 | 8.0 | 0.00 | 0.00 | 0.00 | 35 | 982.8 |
| 20260505185545 | 79 | 305 | 2.0 | 5.0 | 0.00 | 0.00 | 0.00 | 36 | 982.9 |
| 20260505185035 | 79 | 295 | 3.0 | 6.0 | 0.00 | 0.00 | 0.00 | 36 | 983.0 |
| 20260505184530 | 78 | 43 | 4.0 | 6.0 | 0.00 | 0.00 | 0.00 | 39 | 983.2 |
| 20260505184026 | 78 | 295 | 3.0 | 7.0 | 0.00 | 0.00 | 0.00 | 39 | 983.1 |
| 20260505183521 | 77 | 327 | 2.0 | 5.0 | 0.00 | 0.00 | 0.00 | 39 | 983.4 |
| 20260505183016 | 77 | 346 | 8.0 | 9.0 | 0.00 | 0.00 | 0.00 | 39 | 983.2 |
| 20260505182516 | 77 | 289 | 7.0 | 15.0 | 0.00 | 0.00 | 0.00 | 38 | 983.2 |
| 20260505182006 | 77 | 102 | 2.0 | 10.0 | 0.00 | 0.00 | 0.00 | 40 | 983.4 |
| 20260505181501 | 78 | 319 | 4.0 | 7.0 | 0.00 | 0.00 | 0.00 | 37 | 983.5 |
| 20260505181057 | 78 | 305 | 4.0 | 8.0 | 0.00 | 0.00 | 0.00 | 39 | 983.6 |
| 20260505180552 | 77 | 171 | 4.0 | 6.0 | 0.00 | 0.00 | 0.00 | 38 | 983.6 |
| 20260505180047 | 77 | 133 | 1.0 | 3.0 | 0.00 | 0.00 | 0.00 | 38 | 983.7 |
| 20260505175542 | 77 | 318 | 6.0 | 8.0 | 0.00 | 0.00 | 0.00 | 39 | 984.0 |
| 20260505175042 | 77 | 319 | 2.0 | 5.0 | 0.00 | 0.00 | 0.00 | 40 | 984.0 |
| 20260505174537 | 77 | 181 | 1.0 | 4.0 | 0.00 | 0.00 | 0.00 | 39 | 984.1 |
| 20260505174027 | 76 | 240 | 0.0 | 6.0 | 0.00 | 0.00 | 0.00 | 43 | 984.0 |
| 20260505173522 | 76 | 273 | 3.0 | 13.0 | 0.00 | 0.00 | 0.00 | 42 | 984.2 |
| 20260505173018 | 76 | 216 | 2.0 | 7.0 | 0.00 | 0.00 | 0.00 | 40 | 984.0 |
| 20260505172512 | 76 | 149 | 2.0 | 6.0 | 0.00 | 0.00 | 0.00 | 40 | 984.1 |
| 20260505172008 | 77 | 220 | 5.0 | 5.0 | 0.00 | 0.00 | 0.00 | 40 | 984.1 |
| 20260505171507 | 76 | 35 | 1.0 | 4.0 | 0.00 | 0.00 | 0.00 | 43 | 984.1 |
| 20260505171058 | 76 | 230 | 5.0 | 13.0 | 0.00 | 0.00 | 0.00 | 40 | 984.3 |
| 20260505170558 | 76 | 284 | 1.0 | 6.0 | 0.00 | 0.00 | 0.00 | 41 | 984.2 |
| 20260505170048 | 77 | 45 | 2.0 | 5.0 | 0.00 | 0.00 | 0.00 | 40 | 984.2 |
| 20260505165548 | 76 | 63 | 1.0 | 8.0 | 0.00 | 0.00 | 0.00 | 43 | 984.2 |
| 20260505165038 | 75 | 287 | 1.0 | 4.0 | 0.00 | 0.00 | 0.00 | 45 | 984.2 |
| 20260505164533 | 75 | 284 | 5.0 | 10.0 | 0.00 | 0.00 | 0.00 | 43 | 984.4 |
| 20260505164028 | 75 | 23 | 1.0 | 6.0 | 0.00 | 0.00 | 0.00 | 41 | 984.4 |
| 20260505163523 | 75 | 15 | 2.0 | 9.0 | 0.00 | 0.00 | 0.00 | 44 | 984.2 |
| 20260505163019 | 74 | 281 | 3.0 | 4.0 | 0.00 | 0.00 | 0.00 | 45 | 984.3 |
| 20260505162513 | 73 | 257 | 0.0 | 2.0 | 0.00 | 0.00 | 0.00 | 46 | 984.2 |
| 20260505162008 | 72 | 307 | 7.0 | 8.0 | 0.00 | 0.00 | 0.00 | 46 | 984.5 |
| 20260505161503 | 72 | 0 | 4.0 | 5.0 | 0.00 | 0.00 | 0.00 | 46 | 984.4 |
| 20260505161059 | 72 | 145 | 2.0 | 9.0 | 0.00 | 0.00 | 0.00 | 46 | 984.5 |
| 20260505160554 | 72 | 64 | 0.0 | 6.0 | 0.00 | 0.00 | 0.00 | 46 | 984.4 |
| 20260505153019 | 71 | 169 | 2.0 | 3.0 | 0.00 | 0.00 | 0.00 | 49 | 985.2 |
| 20260505152513 | 71 | 318 | 6.0 | 8.0 | 0.00 | 0.00 | 0.00 | 50 | 984.9 |
| 20260505152008 | 71 | 315 | 3.0 | 4.0 | 0.00 | 0.00 | 0.00 | 50 | 984.9 |
| 20260505151503 | 70 | 235 | 0.0 | 5.0 | 0.00 | 0.00 | 0.00 | 50 | 984.8 |
| 20260505151100 | 71 | 6 | 4.0 | 10.0 | 0.00 | 0.00 | 0.00 | 48 | 984.8 |
| 20260505150554 | 71 | 243 | 0.0 | 7.0 | 0.00 | 0.00 | 0.00 | 51 | 984.8 |
| 20260505140555 | 72 | 188 | 1.0 | 4.0 | 0.00 | 0.00 | 0.00 | 52 | 984.3 |
| 20260505125041 | 63 | 114 | 3.0 | 4.0 | 0.00 | 0.00 | 0.00 | 68 | 983.5 |
| 20260505124535 | 62 | 32 | 0.0 | 3.0 | 0.00 | 0.00 | 0.00 | 71 | 983.6 |
| 20260505124036 | 61 | 105 | 4.0 | 4.0 | 0.00 | 0.00 | 0.00 | 74 | 983.8 |
| 20260505123526 | 60 | 110 | 3.0 | 3.0 | 0.00 | 0.00 | 0.00 | 76 | 983.6 |
| 20260505123021 | 60 | 97 | 2.0 | 2.0 | 0.00 | 0.00 | 0.00 | 75 | 983.5 |
| 20260505122516 | 58 | 50 | 0.0 | 0.0 | 0.00 | 0.00 | 0.00 | 75 | 983.6 |
| 20260505122011 | 58 | 142 | 0.0 | 0.0 | 0.00 | 0.00 | 0.00 | 76 | 983.5 |
| 20260505121506 | 58 | 116 | 2.0 | 3.0 | 0.00 | 0.00 | 0.00 | 76 | 983.7 |
| 20260505121001 | 57 | 88 | 2.0 | 3.0 | 0.00 | 0.00 | 0.00 | 79 | 983.5 |
| 20260505120601 | 57 | 105 | 3.0 | 3.0 | 0.00 | 0.00 | 0.00 | 77 | 983.5 |
| 20260505120057 | 56 | 95 | 3.0 | 3.0 | 0.00 | 0.00 | 0.00 | 79 | 983.6 |
| 20260505115548 | 56 | 108 | 2.0 | 3.0 | 0.00 | 0.00 | 0.00 | 77 | 983.5 |
| 20260505115042 | 56 | 101 | 1.0 | 2.0 | 0.00 | 0.00 | 0.00 | 77 | 983.2 |
| 20260505114542 | 55 | 108 | 1.0 | 3.0 | 0.00 | 0.00 | 0.00 | 78 | 983.4 |
| 20260505114037 | 54 | 85 | 1.0 | 1.0 | 0.00 | 0.00 | 0.00 | 80 | 983.2 |
| 20260505113527 | 54 | 124 | 0.0 | 0.0 | 0.00 | 0.00 | 0.00 | 79 | 983.0 |
| 20260505113022 | 54 | 119 | 0.0 | 0.0 | 0.00 | 0.00 | 0.00 | 79 | 983.0 |
| 20260505112517 | 53 | 76 | 0.0 | 1.0 | 0.00 | 0.00 | 0.00 | 83 | 983.1 |
| 20260505112012 | 51 | 103 | 0.0 | 2.0 | 0.00 | 0.00 | 0.00 | 85 | 983.0 |
| 20260505111507 | 50 | 97 | 2.0 | 2.0 | 0.00 | 0.00 | 0.00 | 87 | 983.1 |
| 20260505111002 | 50 | 76 | 0.0 | 1.0 | 0.00 | 0.00 | 0.00 | 86 | 983.1 |
| 20260505110558 | 50 | 86 | 1.0 | 2.0 | 0.00 | 0.00 | 0.00 | 86 | 982.9 |
| 20260505102013 | 50 | 117 | 0.0 | 1.0 | 0.00 | 0.00 | 0.00 | 85 | 982.8 |
| 20260505101508 | 50 | 120 | 1.0 | 1.0 | 0.00 | 0.00 | 0.00 | 85 | 983.0 |
| 20260505101003 | 51 | 116 | 0.0 | 1.0 | 0.00 | 0.00 | 0.00 | 84 | 982.8 |
| 20260505100558 | 51 | 110 | 0.0 | 1.0 | 0.00 | 0.00 | 0.00 | 83 | 982.8 |
| 20260505100054 | 50 | 44 | 0.0 | 0.0 | 0.00 | 0.00 | 0.00 | 83 | 982.9 |
| 20260505095548 | 50 | 57 | 0.0 | 0.0 | 0.00 | 0.00 | 0.00 | 83 | 982.8 |
| 20260505095044 | 50 | 122 | 0.0 | 0.0 | 0.00 | 0.00 | 0.00 | 83 | 982.8 |
| 20260505094538 | 51 | 103 | 0.0 | 1.0 | 0.00 | 0.00 | 0.00 | 82 | 982.9 |
| 20260505094033 | 51 | 80 | 0.0 | 1.0 | 0.00 | 0.00 | 0.00 | 82 | 982.8 |
| 20260505093530 | 51 | 111 | 1.0 | 1.0 | 0.00 | 0.00 | 0.00 | 82 | 982.6 |
| 20260505093025 | 51 | 69 | 0.0 | 0.0 | 0.00 | 0.00 | 0.00 | 82 | 983.0 |
| 20260505092525 | 51 | 235 | 0.0 | 1.0 | 0.00 | 0.00 | 0.00 | 82 | 983.1 |
| 20260505092015 | 51 | 24 | 2.0 | 2.0 | 0.00 | 0.00 | 0.00 | 80 | 983.1 |
| 20260505091510 | 51 | 147 | 0.0 | 0.0 | 0.00 | 0.00 | 0.00 | 80 | 983.2 |
| 20260505091004 | 51 | 124 | 0.0 | 0.0 | 0.00 | 0.00 | 0.00 | 79 | 983.1 |
| 20260505090601 | 52 | 89 | 0.0 | 2.0 | 0.00 | 0.00 | 0.00 | 79 | 983.3 |
| 20260505090055 | 52 | 131 | 0.0 | 1.0 | 0.00 | 0.00 | 0.00 | 80 | 983.5 |
| 20260505085550 | 52 | 110 | 0.0 | 1.0 | 0.00 | 0.00 | 0.00 | 78 | 983.2 |
| 20260505085046 | 52 | 124 | 0.0 | 1.0 | 0.00 | 0.00 | 0.00 | 78 | 983.2 |
| 20260505084540 | 52 | 123 | 2.0 | 2.0 | 0.00 | 0.00 | 0.00 | 80 | 983.3 |
| 20260505084040 | 52 | 63 | 0.0 | 2.0 | 0.00 | 0.00 | 0.00 | 79 | 983.4 |
| 20260505083530 | 52 | 119 | 0.0 | 2.0 | 0.00 | 0.00 | 0.00 | 79 | 983.2 |
| 20260505083025 | 52 | 139 | 0.0 | 1.0 | 0.00 | 0.00 | 0.00 | 80 | 983.2 |
| 20260505082520 | 52 | 135 | 0.0 | 1.0 | 0.00 | 0.00 | 0.00 | 80 | 983.4 |
| 20260505082015 | 52 | 79 | 2.0 | 2.0 | 0.00 | 0.00 | 0.00 | 81 | 983.1 |
| 20260505081515 | 52 | 44 | 0.0 | 1.0 | 0.00 | 0.00 | 0.00 | 81 | 983.1 |
| 20260505081005 | 51 | 57 | 3.0 | 3.0 | 0.00 | 0.00 | 0.00 | 80 | 983.2 |